| time (UTC) | temp C | wind direction | speed KPH | gust KPH | rain 1hr cm | rain 24hr cm | rain mn cm | humidity % | barometer mb |
| 20260510120005 | 12 | 180 | 12.9 | 14.5 | 0.00 | 0.00 | 0.00 | 85 | 1029.9 |
| 20260510114504 | 12 | 180 | 12.9 | 14.5 | 0.00 | 0.00 | 0.00 | 85 | 1029.9 |
| 20260510113005 | 13 | 180 | 14.5 | 20.9 | 0.00 | 0.00 | 0.00 | 81 | 1029.9 |
| 20260510111505 | 13 | 180 | 14.5 | 20.9 | 0.00 | 0.00 | 0.00 | 81 | 1029.9 |
| 20260510110005 | 13 | 180 | 11.3 | 12.9 | 0.00 | 0.00 | 0.00 | 81 | 1029.8 |
| 20260510104504 | 13 | 180 | 11.3 | 12.9 | 0.00 | 0.00 | 0.00 | 81 | 1029.8 |
| 20260510103005 | 14 | 157 | 11.3 | 12.9 | 0.00 | 0.00 | 0.00 | 76 | 1029.6 |
| 20260510101505 | 14 | 157 | 11.3 | 12.9 | 0.00 | 0.00 | 0.00 | 76 | 1029.6 |
| 20260510100005 | 13 | 180 | 9.7 | 11.3 | 0.00 | 0.00 | 0.00 | 84 | 1029.3 |
| 20260510094505 | 13 | 180 | 9.7 | 11.3 | 0.00 | 0.00 | 0.00 | 84 | 1029.3 |
| 20260510093004 | 12 | 180 | 8.0 | 9.7 | 0.00 | 0.00 | 0.00 | 81 | 1029.1 |
| 20260510091504 | 12 | 180 | 8.0 | 9.7 | 0.00 | 0.00 | 0.00 | 81 | 1029.1 |
| 20260510090005 | 15 | 0 | 0.0 | 0.0 | 0.00 | 0.00 | 0.00 | 73 | 1028.8 |
| 20260510084506 | 15 | 0 | 0.0 | 0.0 | 0.00 | 0.00 | 0.00 | 73 | 1028.8 |
| 20260510083004 | 16 | 180 | 4.8 | 8.0 | 0.00 | 0.00 | 0.00 | 64 | 1028.5 |
| 20260510081505 | 16 | 180 | 4.8 | 8.0 | 0.00 | 0.00 | 0.00 | 64 | 1028.5 |
| 20260510080005 | 18 | 180 | 8.0 | 11.3 | 0.00 | 0.00 | 0.00 | 55 | 1028.2 |
| 20260510074505 | 18 | 180 | 8.0 | 11.3 | 0.00 | 0.00 | 0.00 | 55 | 1028.2 |
| 20260510073004 | 19 | 157 | 8.0 | 11.3 | 0.00 | 0.00 | 0.00 | 54 | 1028.3 |
| 20260510071504 | 19 | 157 | 8.0 | 11.3 | 0.00 | 0.00 | 0.00 | 54 | 1028.3 |
| 20260510070004 | 20 | 135 | 4.8 | 9.7 | 0.00 | 0.00 | 0.00 | 52 | 1028.1 |
| 20260510064505 | 20 | 135 | 4.8 | 9.7 | 0.00 | 0.00 | 0.00 | 52 | 1028.1 |
| 20260510063005 | 20 | 180 | 11.3 | 19.3 | 0.00 | 0.00 | 0.00 | 53 | 1028.0 |
| 20260510061505 | 20 | 180 | 11.3 | 19.3 | 0.00 | 0.00 | 0.00 | 53 | 1028.0 |
| 20260510060005 | 19 | 135 | 11.3 | 14.5 | 0.00 | 0.00 | 0.00 | 54 | 1028.1 |
| 20260510054504 | 19 | 135 | 11.3 | 14.5 | 0.00 | 0.00 | 0.00 | 54 | 1028.1 |
| 20260510053004 | 19 | 157 | 9.7 | 14.5 | 0.00 | 0.00 | 0.00 | 56 | 1028.2 |
| 20260510051504 | 19 | 157 | 9.7 | 14.5 | 0.00 | 0.00 | 0.00 | 56 | 1028.2 |
| 20260510050004 | 20 | 202 | 12.9 | 19.3 | 0.00 | 0.00 | 0.00 | 56 | 1028.3 |
| 20260510044504 | 20 | 202 | 12.9 | 19.3 | 0.00 | 0.00 | 0.00 | 56 | 1028.3 |
| 20260510043005 | 19 | 157 | 9.7 | 14.5 | 0.00 | 0.00 | 0.00 | 58 | 1028.4 |
| 20260510041505 | 19 | 157 | 9.7 | 14.5 | 0.00 | 0.00 | 0.00 | 58 | 1028.4 |
| 20260510040004 | 18 | 202 | 9.7 | 14.5 | 0.00 | 0.00 | 0.00 | 61 | 1028.6 |
| 20260510034504 | 18 | 202 | 9.7 | 14.5 | 0.00 | 0.00 | 0.00 | 61 | 1028.6 |
| 20260510033004 | 18 | 157 | 11.3 | 16.1 | 0.00 | 0.00 | 0.00 | 61 | 1029.0 |
| 20260510031505 | 18 | 157 | 11.3 | 16.1 | 0.00 | 0.00 | 0.00 | 61 | 1029.0 |
| 20260510030005 | 18 | 157 | 12.9 | 16.1 | 0.00 | 0.00 | 0.00 | 61 | 1029.3 |
| 20260510024504 | 18 | 157 | 12.9 | 16.1 | 0.00 | 0.00 | 0.00 | 61 | 1029.3 |
| 20260510023004 | 17 | 157 | 12.9 | 16.1 | 0.00 | 0.00 | 0.00 | 64 | 1029.7 |
| 20260510021504 | 17 | 157 | 12.9 | 16.1 | 0.00 | 0.00 | 0.00 | 64 | 1029.7 |
| 20260510020005 | 17 | 180 | 4.8 | 12.9 | 0.00 | 0.00 | 0.00 | 68 | 1030.1 |
| 20260510014505 | 17 | 180 | 4.8 | 12.9 | 0.00 | 0.00 | 0.00 | 68 | 1030.1 |
| 20260510013005 | 16 | 135 | 4.8 | 11.3 | 0.00 | 0.00 | 0.00 | 73 | 1030.2 |
| 20260510011504 | 16 | 135 | 4.8 | 11.3 | 0.00 | 0.00 | 0.00 | 73 | 1030.2 |
| 20260510010004 | 15 | 135 | 4.8 | 11.3 | 0.00 | 0.00 | 0.00 | 77 | 1030.2 |
| 20260510004504 | 15 | 135 | 4.8 | 11.3 | 0.00 | 0.00 | 0.00 | 77 | 1030.2 |
| 20260510003005 | 13 | 157 | 9.7 | 12.9 | 0.00 | 0.00 | 0.00 | 80 | 1030.4 |
| 20260510001505 | 13 | 157 | 9.7 | 12.9 | 0.00 | 0.00 | 0.00 | 80 | 1030.4 |
| 20260510000004 | 12 | 135 | 9.7 | 11.3 | 0.00 | 0.00 | 0.00 | 85 | 1030.6 |
| 20260509234504 | 12 | 135 | 9.7 | 11.3 | 0.00 | 0.00 | 0.00 | 85 | 1030.6 |
| 20260509233004 | 11 | 157 | 1.6 | 9.7 | 0.00 | 0.00 | 0.00 | 95 | 1030.4 |
| 20260509231504 | 11 | 157 | 1.6 | 9.7 | 0.00 | 0.00 | 0.00 | 95 | 1030.4 |
| 20260509230005 | 9 | 157 | 4.8 | 8.0 | 0.00 | 0.00 | 0.00 | 96 | 1030.2 |
| 20260509224504 | 9 | 157 | 4.8 | 8.0 | 0.00 | 0.00 | 0.00 | 96 | 1030.2 |
| 20260509223004 | 8 | 180 | 8.0 | 9.7 | 0.00 | 0.00 | 0.00 | 97 | 1029.8 |
| 20260509221504 | 8 | 180 | 8.0 | 9.7 | 0.00 | 0.00 | 0.00 | 97 | 1029.8 |
| 20260509220005 | 5 | 180 | 3.2 | 8.0 | 0.00 | 0.00 | 0.00 | 96 | 1029.5 |
| 20260509214504 | 5 | 180 | 3.2 | 8.0 | 0.00 | 0.00 | 0.00 | 96 | 1029.5 |
| 20260509213004 | 4 | 0 | 0.0 | 0.0 | 0.00 | 0.00 | 0.00 | 95 | 1029.3 |
| 20260509211504 | 4 | 0 | 0.0 | 0.0 | 0.00 | 0.00 | 0.00 | 95 | 1029.3 |
| 20260509210005 | 4 | 0 | 0.0 | 0.0 | 0.00 | 0.00 | 0.00 | 95 | 1029.0 |
| 20260509204505 | 4 | 0 | 0.0 | 0.0 | 0.00 | 0.00 | 0.00 | 95 | 1029.0 |
| 20260509203004 | 4 | 0 | 0.0 | 0.0 | 0.00 | 0.00 | 0.00 | 94 | 1028.8 |
| 20260509201505 | 4 | 0 | 0.0 | 0.0 | 0.00 | 0.00 | 0.00 | 94 | 1028.8 |
| 20260509200005 | 5 | 180 | 1.6 | 4.8 | 0.00 | 0.00 | 0.00 | 95 | 1028.5 |
| 20260509194505 | 5 | 180 | 1.6 | 4.8 | 0.00 | 0.00 | 0.00 | 95 | 1028.5 |
| 20260509193004 | 6 | 0 | 0.0 | 0.0 | 0.00 | 0.00 | 0.00 | 95 | 1028.2 |
| 20260509191505 | 6 | 0 | 0.0 | 0.0 | 0.00 | 0.00 | 0.00 | 95 | 1028.2 |
| 20260509190006 | 7 | 180 | 4.8 | 8.0 | 0.00 | 0.00 | 0.00 | 95 | 1028.0 |
| 20260509184506 | 7 | 180 | 4.8 | 8.0 | 0.00 | 0.00 | 0.00 | 95 | 1028.0 |
| 20260509183004 | 7 | 180 | 8.0 | 9.7 | 0.00 | 0.00 | 0.00 | 95 | 1028.0 |
| 20260509181504 | 7 | 180 | 8.0 | 9.7 | 0.00 | 0.00 | 0.00 | 95 | 1028.0 |
| 20260509180005 | 5 | 0 | 0.0 | 8.0 | 0.00 | 0.00 | 0.00 | 91 | 1028.1 |
| 20260509174505 | 5 | 0 | 0.0 | 8.0 | 0.00 | 0.00 | 0.00 | 91 | 1028.1 |
| 20260509173004 | 5 | 0 | 0.0 | 0.0 | 0.00 | 0.00 | 0.00 | 91 | 1028.2 |
| 20260509171504 | 5 | 0 | 0.0 | 0.0 | 0.00 | 0.00 | 0.00 | 91 | 1028.2 |
| 20260509170005 | 5 | 225 | 4.8 | 8.0 | 0.00 | 0.00 | 0.00 | 91 | 1028.3 |
| 20260509164505 | 5 | 225 | 4.8 | 8.0 | 0.00 | 0.00 | 0.00 | 91 | 1028.3 |
| 20260509163005 | 6 | 225 | 8.0 | 9.7 | 0.00 | 0.00 | 0.00 | 91 | 1028.3 |
| 20260509161505 | 6 | 225 | 8.0 | 9.7 | 0.00 | 0.00 | 0.00 | 91 | 1028.3 |
| 20260509160005 | 7 | 0 | 0.0 | 0.0 | 0.00 | 0.00 | 0.00 | 90 | 1028.5 |
| 20260509154504 | 7 | 0 | 0.0 | 0.0 | 0.00 | 0.00 | 0.00 | 90 | 1028.5 |
| 20260509153004 | 8 | 225 | 4.8 | 8.0 | 0.00 | 0.00 | 0.00 | 88 | 1028.6 |
| 20260509151504 | 8 | 225 | 4.8 | 8.0 | 0.00 | 0.00 | 0.00 | 88 | 1028.6 |
| 20260509150005 | 10 | 225 | 9.7 | 11.3 | 0.00 | 0.00 | 0.00 | 91 | 1028.6 |
| 20260509144505 | 10 | 225 | 9.7 | 11.3 | 0.00 | 0.00 | 0.00 | 91 | 1028.6 |
| 20260509143005 | 7 | 180 | 8.0 | 11.3 | 0.00 | 0.00 | 0.00 | 90 | 1028.7 |
| 20260509141505 | 7 | 180 | 8.0 | 11.3 | 0.00 | 0.00 | 0.00 | 90 | 1028.7 |
| 20260509140005 | 7 | 0 | 0.0 | 0.0 | 0.00 | 0.00 | 0.00 | 89 | 1028.8 |
| 20260509134504 | 7 | 0 | 0.0 | 0.0 | 0.00 | 0.00 | 0.00 | 89 | 1028.8 |
| 20260509133004 | 7 | 0 | 0.0 | 4.8 | 0.00 | 0.00 | 0.00 | 88 | 1029.0 |
| 20260509131504 | 7 | 0 | 0.0 | 4.8 | 0.00 | 0.00 | 0.00 | 88 | 1029.0 |
| 20260509130005 | 8 | 0 | 0.0 | 0.0 | 0.00 | 0.00 | 0.00 | 89 | 1029.0 |
| 20260509124505 | 8 | 0 | 0.0 | 0.0 | 0.00 | 0.00 | 0.00 | 89 | 1029.0 |
| 20260509123004 | 8 | 180 | 1.6 | 8.0 | 0.00 | 0.00 | 0.00 | 87 | 1029.0 |
| 20260509121504 | 8 | 180 | 1.6 | 8.0 | 0.00 | 0.00 | 0.00 | 87 | 1029.0 |